Location: Nag� el Ma?a??a
(24.0667°N, 32.8833°E)
Time: 17:07:52
(UTC+00:00)

MOS 1 Rocket - Pass Details

Date: 25 September 2021
Orbit: 614 x 830 km, 97.4° (Epoch: 16 October)

Event Time Altitude Azimuth Distance (km) Brightness Sun altitude
Rises 02:31:28 0° 195° (SSW) 3,101 6.4 -16.0°
Reaches altitude 10° 02:34:10 10° 209° (SSW) 2,145 5.5 -15.4°
Maximum altitude 02:37:53 24° 262° (W) 1,394 4.2 -14.6°
Drops below altitude 10° 02:41:29 10° 315° (NW) 2,055 5.4 -13.8°
Sets 02:44:01 0° 330° (NNW) 2,939 6.3 -13.2°
